Regional Weather Roundup
Issued by NWS

Home | Current Version | Previous Version | Graphics & Text | Print | Product List | Glossary On
Versions: 1 2 3 4 5 6 7 8 9 10 11 12 13 14 15 16 17 18 19 20 21 22 23 24 25 26 27 28 29 30 31 32 33 34 35 36 37 38 39 40 41 42 43 44 45 46 47 48 49 50
000
ASUS43 KOAX 220310
RWRNE

WEATHER ROUNDUP FOR NEBRASKA
NATIONAL WEATHER SERVICE OMAHA NE
900 PM CST SUN DEC 21 2014

NOTES: SATELLITE DATA IS BEING USED TO AUGMENT CLOUD COVER ABOVE
       12000 FEET.
       "FAIR" INDICATES FEW OR NO CLOUDS BELOW 12,000 FEET WITH NO
       SIGNIFICANT WEATHER AND/OR OBSTRUCTIONS TO VISIBILITY.

  * THESE STATIONS DO NOT REPORT WEATHER SUCH AS RAIN...SNOW OR FOG.

NEZ001>004-019>022-054>056-220400-
NEBRASKA PANHANDLE

CITY           SKY/WX    TMP DP  RH WIND       PRES   REMARKS
SCOTTSBLUFF    CLOUDY    39  32  76 W13       29.55R WCI  31
ALLIANCE       MOCLDY    28  26  92 W8        29.50R WCI  20
CHADRON        CLOUDY    39  30  70 W13       29.50R WCI  31
KIMBALL        CLOUDY    40  34  79 NW10      29.54R WCI  33
SIDNEY         MOCLDY    38  31  76 NW12      29.53R WCI  30
$$

NEZ057>060-069>072-079>082-220400-
SOUTHWEST NEBRASKA

CITY           SKY/WX    TMP DP  RH WIND       PRES   REMARKS
NORTH PLATTE   MOCLDY    35  32  88 S6        29.48F WCI  30
IMPERIAL       MOCLDY    35  30  82 W3        29.51R
LEXINGTON      CLOUDY    40  37  87 S9        29.53S WCI  34
MCCOOK         CLOUDY    38  34  85 CALM      29.51F
OGALLALA       PTCLDY    33  31  94 W7        29.50R WCI  26
$$

NEZ005>010-023>029-035>040-094-220400-
NORTH CENTRAL NEBRASKA

CITY           SKY/WX    TMP DP  RH WIND       PRES   REMARKS
VALENTINE      CLOUDY    36  31  82 SW9       29.42S WCI  29
AINSWORTH      CLOUDY    35  32  90 S15       29.44S WCI  25
BROKEN BOW     CLOUDY    38  35  89 SE7       29.49F WCI  33
O`NEILL        DRIZZLE   38  38  98 S16       29.50R WCI  29
THEDFORD       PTCLDY    36  33  90 SW12      29.45S WCI  28
$$

NEZ041-046>049-061>064-073>077-083>087-220400-
SOUTH CENTRAL NEBRASKA

CITY           SKY/WX    TMP DP  RH WIND       PRES   REMARKS
GRAND ISLAND   CLOUDY    41  38  89 S18       29.58S
AURORA         CLOUDY    40  40 100 S14       29.59S FOG     WCI  33
HASTINGS       CLOUDY    41  38  89 S13       29.57S
HEBRON         CLOUDY    42  40  91 S13       29.63S FOG
HOLDREGE       CLOUDY    39  37  93 S13       29.55R WCI  32
KEARNEY *      CLOUDY    39  37  93 S15       29.54F WCI  31
YORK           CLOUDY    41  41 100 S14       29.61R
$$

NEZ011>018-030>034-042>045-220400-
NORTHEAST NEBRASKA

CITY           SKY/WX    TMP DP  RH WIND       PRES   REMARKS
NORFOLK        CLOUDY    41  38  89 S17G26    29.55F
ALBION         CLOUDY    39  37  90 S15       29.57R WCI  31
BLAIR          CLOUDY    42  40  93 S18       29.65S FOG
COLUMBUS *     CLOUDY    41  37  87 S15       29.61S
FREMONT        CLOUDY    42  42  97 SE12      29.64F FOG
TEKAMAH        LGT RAIN  42  40  92 S15       29.65F FOG
WAYNE          CLOUDY    40  39  94 S16G22    29.58F WCI  32
$$

NEZ050>053-065>068-078-088>093-220400-
SOUTHEAST NEBRASKA

CITY           SKY/WX    TMP DP  RH WIND       PRES   REMARKS
LINCOLN        CLOUDY    42  41  96 S14       29.65F
OMAHA EPPLEY   DRIZZLE   42  41  96 S18       29.68F FOG
BEATRICE       CLOUDY    42  41  97 S12       29.65F FOG
FALLS CITY     CLOUDY    43  41  93 S15       29.71F FOG
NEBRASKA CITY  CLOUDY    42  42 100 S16       29.68F FOG
PLATTSMOUTH    CLOUDY    41  40  94 SE10      29.67F FOG
$$

NEZ044-045-051>053-067-220400-
OMAHA AREA

CITY           SKY/WX    TMP DP  RH WIND       PRES   REMARKS
OMAHA EPPLEY   DRIZZLE   42  41  96 S18       29.68F FOG
BLAIR          CLOUDY    42  40  93 S18       29.65S FOG
FREMONT        CLOUDY    42  42  97 SE12      29.64F FOG
MILLARD        CLOUDY    42  41  93 SE12      29.66F FOG
OFFUTT AFB     CLOUDY    42  41  96 SE15      29.67F FOG
PLATTSMOUTH    CLOUDY    41  40  94 SE10      29.67F FOG
WAHOO          DRIZZLE   42  40  91 S15       29.64F
$$


USA.gov is the U.S. government's official web portal to all federal, state and local government web resources and services.